Terminal Aerodrome Forecast
Issued by NWS Jackson, MS

Home | Current Version | Previous Version | Text Only | Print | Product List | Glossary On
Versions: 1 2 3 4 5 6 7 8 9 10 11 12 13 14 15 16 17 18 19 20 21 22 23
937
FTUS44 KJAN 302339
TAFGWO
TAF
KGWO 302339Z 3100/3124 VRB03KT P6SM FEW050
     FM311000 21003KT 5SM BR FEW015
     FM311500 25005KT P6SM FEW020 SCT030
     FM311900 26005KT P6SM VCTS SCT040CB BKN060=

USA.gov is the U.S. government's official web portal to all federal, state and local government web resources and services.